Regional Weather Roundup
Issued by NWS

Home | Current Version | Previous Version | Text Only | Print | Product List | Glossary Off
Versions: 1 2 3 4 5 6 7 8 9 10 11 12 13 14 15 16 17 18 19 20 21 22 23 24 25 26 27 28 29 30 31 32 33 34 35 36 37 38 39 40 41 42 43 44 45 46 47 48 49 50

000
ASUS43 KLOT 101203
RWRIL

ILLINOIS REGIONAL WEATHER ROUNDUP
NATIONAL WEATHER SERVICE CHICAGO/ROMEOVILLE IL
600 AM CST WED FEB 10 2016

NOTE: "FAIR" INDICATES FEW OR NO CLOUDS BELOW 12,000 FEET WITH NO
SIGNIFICANT WEATHER AND/OR OBSTRUCTIONS TO VISIBILITY.

* THESE STATIONS ARE NOT UNDER NWS QUALITY CONTROL. THEY ALSO MAY NOT
  REPORT WEATHER SUCH AS PRECIPITATION OR FOG.

ILZ001-002-007-009-015-016-024-101300-
NORTHWEST ILLINOIS

CITY           SKY/WX    TMP DP  RH WIND       PRES   REMARKS
MOLINE         CLEAR      8  -1  66 W7        30.10R WCI  -3
6HR MIN TEMP:   8; 6HR MAX TEMP:  12;

STERLING*      CLEAR      7  -2  66 W7        30.03S WCI  -5
$$

ILZ003-004-008-010-011-017-018-101300-
NORTH CENTRAL ILLINOIS

CITY           SKY/WX    TMP DP  RH WIND       PRES   REMARKS
ROCKFORD       PTCLDY     7  -1  70 NW10      30.03S WCI  -8
6HR MIN TEMP:   7; 6HR MAX TEMP:  13; 6HR PCP: TRACE;

FREEPORT*      CLEAR      5  -3  71 W6        30.05S WCI  -6
ROCHELLE*      CLEAR      6   0  76 W7        30.02F WCI  -5
DE KALB*       CLOUDY     8   2  76 W10       29.99F WCI  -6
$$

ILZ005-006-012>014-019>023-101300-
NORTHEAST ILLINOIS

CITY           SKY/WX    TMP DP  RH WIND       PRES   REMARKS
CHICAGO-OHARE  PTCLDY     9   0  67 NW12      29.99R WCI  -6
6HR MIN TEMP:   9; 6HR MAX TEMP:  15;

CHICAGO-MIDWAY PTCLDY    11  -1  58 NW12      30.00R WCI  -3
6HR MIN TEMP:  11; 6HR MAX TEMP:  16; 6HR PCP: TRACE;

AURORA         CLEAR      8   2  76 W9        30.01S WCI  -5
6HR MIN TEMP:   8; 6HR MAX TEMP:  14;

LANSING*       CLEAR     11   1  64 NW12      30.00R WCI  -3
WAUKEGAN       MOCLDY     8   0  69 VRB5      29.97R WCI   0
6HR MIN TEMP:   8; 6HR MAX TEMP:  13; 6HR PCP: TRACE;

DUPAGE AIRPORT CLEAR      7  -1  70 NW8       29.99R WCI  -6
6HR MIN TEMP:   7; 6HR MAX TEMP:  13;

WHEELING       CLEAR      9   0  67 NW10      30.00R WCI  -5
6HR MIN TEMP:   9; 6HR MAX TEMP:  14;

NORTHERLY ISL    N/A     12   3  67 W12         N/A  WCI  -2
$$

LMZ740>746-101300-
SOUTHERN LAKE MICHIGAN

STATION/POSITION SKY/WX   TEMP    WIND        PRES    VSBY  WAVE
                          AIR SEA DIR/SP/G                  HT/PER
                          (F)     (DEG/KT/KT) (MB)    (MI)  (FT/S)
HARRISON CRIB              13     320/ 19/ 21   N/A
BURNHAM HARBOR             13     290/  5/ 16   N/A
CALUMET HARBOR             11     290/  9/ 13 1014.5R
BURNS HARBOR               17     300/ 22     1014.2R
MICHIGAN CITY              19     290/ 23/ 26   N/A
$$

ILZ025>027-034>036-040-047-049-050-058-095>099-101300-
WEST-CENTRAL ILLINOIS

CITY           SKY/WX    TMP DP  RH WIND       PRES   REMARKS
QUINCY         PTCLDY    10   4  76 W6        30.14R WCI   0
MACOMB*        PTCLDY     9   4  82 W9        30.13S WCI  -5
$$

ILZ028>032-037-038-041>044-048-051>054-059>061-101300-
CENTRAL ILLINOIS

CITY           SKY/WX    TMP DP  RH WIND       PRES   REMARKS
BLOOMINGTON    CLEAR      8   2  76 NW12      30.06R WCI  -7
DECATUR        PTCLDY    10   3  73 W12       30.09R WCI  -5
PEORIA         CLEAR      8   0  69 NW7       30.10R WCI  -3
6HR MIN TEMP:   8; 6HR MAX TEMP:  12;

LINCOLN*       CLEAR     10   4  77 W7        30.11R WCI  -1
SPRINGFIELD    PTCLDY     8   2  76 W8        30.12S WCI  -4
6HR MIN TEMP:   8; 6HR MAX TEMP:  14;

TAYLORVILLE    NOT AVBL
$$

ILZ033-039-045-046-055>057-062-063-101300-
EAST-CENTRAL ILLINOIS

CITY           SKY/WX    TMP DP  RH WIND       PRES   REMARKS
CHAMPAIGN      CLEAR      6   1  80 W8        30.05R WCI  -7
MATTOON        PTCLDY     8   2  76 W14       30.07R WCI  -8
$$

ILZ079-100>102-101300-
SOUTHWEST ILLINOIS

CITY           SKY/WX    TMP DP  RH WIND       PRES   REMARKS
ALTON          CLEAR     12   5  71 W8        30.16S WCI   1
BELLEVILLE     CLEAR     13   6  75 NW5       30.16F WCI   5
CAHOKIA*       PTCLDY    17   5  59 W10       30.18F WCI   5
SPARTA*        PTCLDY    15   6  68 NW7       30.17F WCI   5
$$

ILZ064>066-069>071-074>076-080>082-084>086-088>090-092>094-101300-
SOUTH-CENTRAL ILLINOIS

CITY           SKY/WX    TMP DP  RH WIND       PRES   REMARKS
CARBONDALE     CLEAR     13   5  70 NW3       30.18S
6HR MIN TEMP:  13; 6HR MAX TEMP:  21; 6HR PCP: TRACE;

MARION         PTCLDY    16   7  67 CALM      30.18F
MT. VERNON     CLEAR     12   1  62 W6        30.15R WCI   3
CENTRALIA*     CLEAR     15   7  72 NW12      30.14S WCI   2
SALEM*         CLEAR     14   5  67 NW10      30.14S WCI   2
$$

ILZ067-068-072-073-078-083-087-091-101300-
SOUTHEAST ILLINOIS

CITY           SKY/WX    TMP DP  RH WIND       PRES   REMARKS
LAWRENCEVILLE  CLEAR     12   5  73 W12       30.12S WCI  -2
HARRISBURG*    PTCLDY    14   8  75 NW3       30.17F
$$

ABBREVIATIONS USED IN REMARKS
   TC - TEMPERATURE IN CELSIUS
  WCI - WIND CHILL INDEX
   HX - HEAT INDEX
  VSB - VISIBILITY
$$




USA.gov is the U.S. government's official web portal to all federal, state and local government web resources and services.